Weather observations for the past three days for
Cheyenne, Cheyenne Airport
Imperial (Metric)
Date Time (mdt) Wind (mph) Vis. (mi.) Weather Sky Cond. Temperature (ºF) Relative Humidity Wind Chill (°F) Heat Index (°F) Pressure Precipitation (in)
Air Dwpt 6 hour altimeter (in) sea level (mb) 1 hr 3 hr 6 hr
Max. Min.
18 08:53 N 21 G 30 10.00 Fair and Breezy CLR 50 16 26% 44 29.9 1005.0
18 07:53 N 18 G 30 10.00 A Few Clouds FEW120 50 14 24% 44 29.9 1004.3
18 06:53 NE 8 G 24 10.00 A Few Clouds FEW120 52 16 24% 29.89 1003.7
18 05:53 NW 21 G 38 10.00 Fair and Breezy CLR 51.1 21.9 68 50 32% 29.8 1000.6
18 04:53 N 17 G 26 10.00 Fair CLR 50 25 38% 45 29.75 998.8
18 03:53 NW 25 G 43 10.00 Fair and Breezy CLR 50 25 38% 43 29.71 997.4
18 02:53 NW 30 G 47 10.00 Fair and Windy CLR 52 21.9 31% 29.72 997.4
18 01:53 NW 30 G 55 10.00 Fair and Windy CLR 55 32 42% 29.69 996.4
18 00:53 NW 28 G 44 10.00 Fair and Windy CLR 57.9 30.9 36% 29.65 995.2
17 23:53 NW 22 G 36 10.00 Fair and Breezy CLR 68 33.1 82.9 68 27% 29.62 993.4
17 22:53 Calm 10.00 Fair CLR 72 45 38% 29.58 992.0
17 21:53 NW 6 10.00 Fair CLR 73 51.1 46% 29.58 992.4
17 20:53 W 6 10.00 Fair CLR 75.9 54 47% 78 29.57 992.1
17 19:53 SE 7 10.00 Fair CLR 79 54 42% 79 29.56 992.1
17 18:53 SE 15 10.00 Fair CLR 81 53.1 38% 80 29.56 991.9
17 17:53 S 17 G 25 10.00 Fair CLR 82.9 48.9 84.9 73.9 31% 81 29.57 992.2
17 16:53 S 17 G 26 10.00 Fair CLR 82.9 48 30% 81 29.59 992.5
17 15:53 SE 20 G 39 10.00 Fair CLR 84 46.9 27% 82 29.61 993.1
17 14:53 S 14 G 26 10.00 Fair CLR 84 43 24% 81 29.62 993.7
17 13:53 S 14 G 24 10.00 Fair CLR 81 46.9 30% 80 29.65 994.7
17 12:53 S 16 G 26 10.00 Fair CLR 78.1 50 37% 79 29.68 996.2
17 11:53 S 10 10.00 Fair CLR 73.9 51.1 75 52 45% 29.71 997.4
17 10:53 S 10 10.00 Fair CLR 69.1 52 55% 29.73 998.6
17 09:53 S 9 10.00 Fair CLR 64.9 52 63% 29.77 1000.1
17 08:53 S 3 10.00 Mostly Cloudy BKN017 59 50 72% 29.8 1001.4
17 07:53 NW 5 10.00 Mostly Cloudy FEW009 BKN017 55 46.9 74% 29.81 1001.6
17 06:53 NW 3 10.00 Overcast BKN007 OVC018 54 46.9 77% 29.81 1001.3
17 05:53 N 8 10.00 Overcast OVC011 53.1 46 59 53.1 77% 29.83 1002.1
17 04:53 N 10 10.00 Overcast OVC009 54 48.9 83% 29.81 1001.5
17 03:53 N 10 10.00 Overcast OVC010 55.9 50 81% 29.8 1000.7
17 02:53 N 7 10.00 Mostly Cloudy BKN011 55 50 83% 29.8 1001.0
17 01:53 Calm 10.00 Fair CLR 55.9 51.1 84% 29.8 1000.8
17 00:53 Calm 10.00 Fair CLR 57.9 52 81% 29.8 1000.8
16 23:53 SE 10 10.00 Fair CLR 57.9 52 75.9 57.9 81% 29.82 1001.7
16 22:53 E 16 10.00 Mostly Cloudy BKN042 60.1 51.1 72% 29.84 1002.8
16 21:53 E 14 10.00 A Few Clouds FEW045 62.1 51.1 67% 29.85 1003.2
16 20:53 E 13 10.00 Fair CLR 64.9 50 59% 29.85 1003.5
16 19:53 E 15 G 26 10.00 Fair CLR 70 48.9 47% 29.84 1002.6
16 18:53 E 16 10.00 Fair CLR 75 46.9 37% 77 29.85 1002.6
16 17:53 E 12 G 21 10.00 Fair CLR 73.9 46 77 69.1 37% 29.86 1003.2
16 16:53 E 10 10.00 Fair CLR 73.9 44.1 34% 29.87 1003.5
16 15:53 SE 13 G 24 10.00 Fair CLR 75 46.9 37% 77 29.87 1003.3
16 14:53 SE 12 10.00 Fair CLR 75 44.1 33% 77 29.89 1003.8
16 13:53 SE 9 10.00 Fair CLR 73.9 41 31% 29.91 1004.3
16 12:53 E 10 10.00 Fair CLR 73 39.9 30% 29.92 1004.3
16 11:53 E 7 10.00 Fair CLR 70 37.9 70 53.1 31% 29.94 1005.4
16 10:53 NE 9 G 18 10.00 Fair CLR 66 39 37% 29.95 1006.2
16 09:53 NE 13 G 20 10.00 Fair CLR 61 39 44% 29.95 1006.6
16 08:53 N 12 G 20 10.00 Fair CLR 57 39.9 53% 29.96 1006.6
16 07:53 N 15 G 23 10.00 Fair CLR 55 44.1 67% 29.96 1006.0
16 06:53 N 14 G 20 10.00 Fair CLR 54 45 72% 29.93 1005.1
16 05:53 N 13 G 23 10.00 Fair CLR 54 44.1 62.1 52 69% 29.9 1004.6
16 04:53 W 5 10.00 Fair CLR 55 37.9 53% 29.9 1003.5
16 03:53 W 5 10.00 Fair CLR 55.9 37.9 51% 29.9 1003.2
16 02:53 NW 3 10.00 Fair CLR 55.9 39 53% 29.91 1003.9
16 01:53 SW 5 10.00 Fair CLR 57 39 51% 29.93 1004.7
16 00:53 Calm 10.00 Fair CLR 62.1 39 43% 29.94 1004.3
15 23:53 W 7 10.00 Fair CLR 62.1 39 80.1 61 43% 29.93 1004.0
15 22:53 SW 6 10.00 Fair CLR 62.1 37.9 41% 29.92 1003.5
15 21:53 SW 9 10.00 Fair CLR 64 37 37% 29.9 1002.8
15 20:53 S 6 10.00 Fair CLR 70 35.1 28% 29.89 1002.3
15 19:53 SW 13 10.00 Fair CLR 78.1 34 20% 77 29.88 1002.1
15 18:53 W 16 G 25 10.00 Fair CLR 78.1 37 23% 78 29.89 1003.3
15 17:53 W 28 G 41 10.00 Fair and Windy CLR 75.9 37.9 87.1 73.9 25% 77 29.91 1004.6
15 16:53 S 14 G 24 10.00 Fair CLR 82 39.9 22% 80 29.88 1002.8
15 14:53 S 16 10.00 A Few Clouds FEW120 82 41 23% 80 29.89 1003.1
15 13:53 S 13 10.00 Fair CLR 80.1 39.9 24% 79 29.91 1003.7
15 12:53 W 14 G 25 10.00 Partly Cloudy SCT100 82.9 35.1 18% 80 29.93 1004.3
15 11:53 W 8 10.00 Fair CLR 82 35.1 84 54 18% 80 29.96 1005.1
15 10:53 W 9 10.00 Fair CLR 82 37 20% 80 29.96 1005.0
15 09:53 W 8 10.00 Fair CLR 81 39 22% 79 29.98 1005.6
Date Time (mdt) Wind (mph) Vis. (mi.) Weather Sky Cond. Air Dwpt Max. Min. Relative Humidity Wind Chill (°F) Heat Index (°F) altimeter (in) sea level (mb) 1 hr 3 hr 6 hr
6 hour
Temperature (ºF) Pressure Precipitation (in)